Location: Wyoming Skies Observatory
(43.6910°N, 108.3105°W)
Time: 00:17:45
(UTC-06:00)

Daily predictions for brighter satellites

Satellite Brightness Start Highest point End
(mag) Time Altitude Azimuth Time Altitude Azimuth Time Altitude Azimuth
Cosmos 1844 Rocket 4.1 00:05:13 10° N 00:09:13 29° NE 00:09:13 29° NE
Cosmos 2360 Rocket 3.6 00:14:22 30° NE 00:14:22 30° NE 00:17:12 10° NNE
Cosmos 1980 Rocket 4.3 00:07:25 10° W 00:11:43 22° NW 00:16:07 10° N
BREEZE-M DEB (TANK) 4.5 00:06:47 10° WNW 00:24:18 55° WSW 00:24:18 55° WSW
Cosmos 2219 Rocket 4.4 00:37:37 15° ENE 00:37:37 15° ENE 00:38:45 10° NE
Cosmos 2263 Rocket 3.8 00:35:13 10° NW 00:38:03 26° WNW 00:38:03 26° WNW
Cosmos 2322 Rocket 3.7 00:42:06 29° NW 00:42:17 29° NW 00:47:08 10° N
Cosmos 2333 Rocket 4.5 00:45:46 15° ENE 00:45:46 15° ENE 00:47:04 10° NE
Cosmos 2237 Rocket 4.5 00:52:23 15° ENE 00:52:23 15° ENE 00:53:36 10° NE
COSMOS 2428 4.1 01:01:06 32° NNE 01:01:06 32° NNE 01:04:06 10° NNE
Lacrosse 4 Rocket 4.2 01:12:17 16° NNE 01:12:17 16° NNE 01:13:19 10° NNE
Cosmos 2278 Rocket 3.4 01:16:40 10° NNW 01:20:23 38° N 01:20:23 38° N
COSMOS 2455 3.8 01:54:24 43° NE 01:54:24 43° NE 01:58:22 10° NNE
Cosmos 2360 Rocket 4.1 01:56:07 22° NW 01:56:07 22° NW 02:00:24 10° N
CZ-2C R/B 3.9 01:53:38 10° N 01:57:13 37° NNW 01:57:13 37° NNW
CZ-4C R/B 3.9 02:13:58 23° E 02:13:58 23° E 02:16:58 10° NE
Cosmos 2219 Rocket 3.3 02:19:19 39° NNW 02:19:19 39° NNW 02:23:18 10° NNE
Cosmos 2333 Rocket 3.1 02:27:46 45° NNW 02:27:46 45° NNW 02:32:08 10° NNE
SL-16 R/B 3.1 02:28:18 45° NE 02:28:18 45° NE 02:32:24 10° NNE
ATLAS 3B R/B 2.8 02:27:45 81° NW 02:27:45 81° NW 02:35:06 10° NE
Cosmos 2237 Rocket 3.0 02:34:13 46° NNW 02:34:13 46° NNW 02:38:32 10° NNE
SL-16 R/B 4.3 02:34:25 12° ESE 02:38:48 26° ENE 02:43:47 10° N
Resurs 1-4 Rocket 4.3 02:44:11 10° NE 02:47:26 16° E 02:48:32 15° ESE
Lacrosse 4 Rocket 4.3 02:48:38 11° NW 02:48:38 11° NW 02:49:36 10° NNW
ARIANE 5 R/B 4.4 02:46:27 10° NE 02:50:27 22° E 02:50:57 21° E
Cosmos 1244 Rocket 4.5 02:51:04 10° N 02:57:13 81° NE 02:57:13 81° NE
Cosmos 1553 Rocket 4.4 03:02:41 51° ESE 03:03:17 53° E 03:09:13 10° NNE
Cosmos 2278 Rocket 4.5 03:01:31 10° NW 03:02:11 13° NW 03:02:11 13° NW
Cosmos 1603 4.2 03:09:23 52° ESE 03:09:23 52° ESE 03:14:45 10° NE
ATLAS CENTAUR R/B 3.6 03:10:37 10° NNW 03:14:22 25° NE 03:17:51 10° E
Cosmos 1417 Rocket 4.4 03:15:07 82° SSE 03:15:25 86° E 03:21:50 10° N
USA 238 DEB 3.6 03:15:31 72° WSW 03:16:12 80° NW 03:23:18 10° NE
USA 238 3.6 03:15:37 73° WSW 03:16:18 80° NW 03:23:24 10° NE
USA 234 3.4 03:10:22 10° NE 03:16:49 57° SE 03:17:15 56° SSE
SL-08 R/B 4.4 03:12:14 10° N 03:18:21 76° E 03:19:04 67° SE
IRS-1C 4.0 03:24:36 10° NNE 03:29:52 86° NNE 03:29:52 86° NNE
CBERS-1 4.1 03:26:47 10° N 03:31:23 65° NW 03:31:23 65° NW
NOSS 3-2 (A) 3.6 03:32:17 57° SSE 03:33:05 62° ESE 03:39:37 10° NE
Cosmos 1707 Rocket 4.3 03:36:44 49° E 03:36:44 49° E 03:41:04 10° NNE
COSMOS 2455 4.4 03:37:32 22° WNW 03:38:55 24° NW 03:43:43 10° NNE
NOSS 3-3 (A) 4.5 03:33:43 10° NW 03:41:09 81° NE 03:49:05 10° SE
Cosmos 1943 4.1 03:39:49 35° SE 03:41:15 41° ESE 03:46:32 10° NE
NOSS 3-3 (C) 4.5 03:33:49 10° NW 03:41:16 80° NE 03:49:12 10° SE
Cosmos 1300 3.7 03:43:29 44° NNE 03:43:29 44° NNE 03:46:14 10° N
Cosmos 1726 3.2 03:44:39 43° NNE 03:44:39 43° NNE 03:47:21 10° NNE
Cosmos 1607 4.2 03:43:19 48° WNW 03:44:12 52° NW 03:50:14 10° NNE
CZ-2D R/B 2.6 03:41:36 10° NNE 03:46:48 53° E 03:48:11 41° SSE
NOSS 3-2 (C) 3.6 03:47:18 51° S 03:48:41 64° ESE 03:55:16 10° NE
Cosmos 1151 Rocket 4.1 03:49:52 35° NW 03:49:52 35° NW 03:52:54 10° N
ERS-1 4.3 03:44:51 10° NNE 03:49:51 88° WNW 03:50:06 81° SSW
CZ-3A R/B 4.1 03:47:00 20° W 03:50:48 35° NNW 03:54:44 10° NE
Cosmos 2369 Rocket 2.6 03:46:02 10° NNW 03:51:36 61° ENE 03:57:09 10° SE
Okean O Rocket 3.9 03:51:22 10° NE 03:54:42 20° E 03:57:47 11° SE
Cosmos 1455 4.2 03:54:30 20° ESE 03:55:53 25° E 03:59:07 10° NE
Cosmos 1271 Rocket 3.4 04:00:38 50° NNW 04:00:38 50° NNW 04:03:51 10° N
CZ-4C R/B 2.6 03:59:09 44° WNW 04:00:12 49° NW 04:06:09 10° NNE
NPP 4.4 03:55:30 10° N 04:00:23 36° WNW 04:00:34 36° WNW
Cosmos 1340 Rocket 4.1 03:58:02 10° NNW 04:00:18 30° NW 04:00:18 30° NW
Abrixas rocket 3.6 04:03:22 36° NNE 04:03:22 36° NNE 04:06:02 10° ENE
Cosmos 839 Rocket 4.3 03:58:33 10° NW 04:07:00 82° WSW 04:13:41 10° SSE
Cosmos 494 Rocket 4.2 04:09:18 42° S 04:10:59 69° ESE 04:16:14 10° NNE
SL-16 R/B 3.6 04:10:11 22° WNW 04:11:20 24° NW 04:15:54 10° N
Cosmos 2333 Rocket 4.5 04:10:07 10° WNW 04:12:07 12° NW 04:14:07 10° NNW
Spot 4 Rocket 4.3 04:10:34 10° N 04:15:33 49° WNW 04:16:17 45° W
IRS-1D 3.5 04:11:07 10° N 04:16:17 71° WNW 04:17:38 49° SW
CZ-2D R/B 4.2 04:12:38 10° NNE 04:16:58 52° E 04:18:47 31° SSE
ADEOS 4.0 04:12:02 10° N 04:16:58 44° WNW 04:17:43 41° W
Cosmos 1302 Rocket 4.3 04:12:56 10° NNW 04:18:12 68° ENE 04:23:23 10° SSE
Cosmos 2237 Rocket 4.5 04:16:20 10° WNW 04:18:18 12° NW 04:20:17 10° NNW
ATLAS 3B R/B 4.3 04:15:00 16° WNW 04:19:27 27° NNW 04:25:29 10° NNE
Meteor 1-4 Rocket 4.4 04:21:35 20° NW 04:21:35 20° NW 04:23:13 10° NNW
Cosmos 2263 4.4 04:15:18 10° NNW 04:21:07 76° ENE 04:26:54 10° SSE
Cosmos 1943 Rocket 3.2 04:16:30 10° NNW 04:22:00 47° ENE 04:27:26 10° SE
SL-16 R/B 2.5 04:19:30 35° SSW 04:22:02 57° W 04:28:08 10° NNW
Cosmos 2292 Rocket 3.0 04:19:10 10° N 04:21:50 63° NE 04:21:50 63° NE
PSLV R/B 4.3 04:23:39 37° SE 04:23:39 37° SE 04:26:12 10° E
Meteor 1-27 4.2 04:23:04 43° SW 04:24:44 63° WNW 04:30:17 10° N
Resurs 1-4 Rocket 2.1 04:22:31 10° N 04:27:46 67° WNW 04:29:37 40° SW
ERS-2 3.2 04:25:01 10° N 04:27:57 32° NW 04:27:57 32° NW
ARIANE 5 R/B 2.8 04:24:46 10° N 04:29:50 50° WNW 04:31:18 39° WSW
Cosmos 2242 Rocket 3.5 04:28:45 44° SSW 04:30:10 79° W 04:34:47 10° N
Cosmos 1869 Rocket 4.5 04:27:27 10° NNW 04:30:49 32° WNW 04:30:49 32° WNW
UNK 4.1 04:33:46 40° WSW 04:33:56 41° W 04:38:18 10° NNW
UNKNOWN OBJECT B 2.5 04:30:20 10° N 04:34:01 74° WNW 04:34:38 58° SW
EO 1 Del DPAF 3.3 04:34:02 55° WSW 04:34:21 57° WSW 04:38:12 10° NNW
Cosmos 1331 Rocket 4.1 04:29:31 10° NNW 04:34:38 52° WSW 04:37:16 27° SSW
Meteor 2-11 Rocket 4.4 04:34:24 20° S 04:38:48 89° E 04:44:55 10° N
Cosmos 1869 3.7 04:36:34 23° SSE 04:38:52 60° E 04:42:49 10° NNE
MOS 1-B 4.3 04:33:13 10° NNE 04:39:00 78° WNW 04:42:27 26° SSW
Cosmos 1184 Rocket 3.4 04:36:50 10° N 04:40:14 58° ENE 04:43:32 10° SSE
ERBS 4.1 04:43:21 20° NW 04:44:19 23° NNW 04:47:12 10° NNE
Cosmos 1862 Rocket 3.7 04:42:22 20° S 04:45:18 73° E 04:49:42 10° NNE
ADEOS II 4.2 04:41:12 10° NE 04:45:29 25° E 04:49:43 10° SSE
Iridium 2 4.0 04:45:31 10° NNW 04:49:10 45° W 04:49:53 40° WSW
BREEZE-M DEB (TANK) 3.7 04:46:45 19° W 04:51:27 43° NNW 04:54:35 10° NE
Cosmos 724 4.3 04:49:25 27° SW 04:52:51 80° NW 04:58:56 10° NNE
Cosmos 1709 Rocket 4.2 04:46:45 10° NNW 04:52:54 53° W 04:58:27 13° SSW
ATLAS CENTAUR R/B 1.7 04:49:33 10° NW 04:53:38 40° WSW 04:57:22 10° S
ATLAS 5 CENTAUR R/B 2.0 04:51:04 24° SSW 04:53:58 70° ESE 04:59:11 10° NE
SeaSat 1 2.4 04:49:18 10° SSE 04:54:08 57° WSW 04:59:00 10° NW
Cosmos 1892 3.3 04:54:02 10° NNW 04:57:36 36° W 04:58:22 32° WSW
Thor Agena Rocket 3.9 04:52:52 10° SSE 04:57:57 67° ENE 05:03:08 10° N
USA 234 3.7 04:53:28 10° NE 04:59:46 52° NNW 05:04:35 18° W
IRS-1C Rocket 4.0 04:58:13 10° NNE 05:03:32 81° WNW 05:08:17 13° SSW
Cosmos 2251 Rocket 4.4 05:02:12 23° WSW 05:04:34 33° WNW 05:09:18 10° N
SL-27 R/B 3.1 05:07:20 12° S 05:10:42 57° ESE 05:14:17 10° NNE
USA 129 3.9 05:11:32 16° ENE 05:11:32 16° ENE 05:12:20 10° NNE
Cosmos 1733 Rocket 3.4 05:07:34 10° NNW 05:11:44 44° W 05:15:54 10° SSW
Cosmos 2074 Rocket 3.9 05:08:06 10° N 05:14:20 81° W 05:20:33 10° S
Cosmos 1992 Rocket 4.4 05:10:51 10° NNW 05:16:05 69° ENE 05:21:17 10° SSE
Cosmos 2184 Rocket 4.0 05:09:44 10° N 05:16:09 81° W 05:22:31 10° S
Cosmos 2327 Rocket 4.4 05:10:39 10° N 05:16:45 80° W 05:22:53 10° S
Cosmos 1782 Rocket 4.3 05:13:27 10° N 05:17:45 55° E 05:22:00 10° SSE
COSMOS 2406 3.7 05:12:46 10° S 05:18:26 61° ESE 05:24:06 10° NNE
PSLV R/B 4.1 05:15:58 10° N 05:19:34 45° WNW 05:22:12 17° SW
Pageos (A) 3.4 05:22:03 10° NNW 05:24:06 37° W 05:25:04 22° SSW
Cosmos 1943 4.1 05:21:39 16° WSW 05:25:23 33° NW 05:30:28 10° N
CZ-2D R/B 3.5 05:22:29 10° NNW 05:26:29 22° WNW 05:29:30 14° WSW
BREEZE-M DEB (TANK) 4.2 05:24:39 10° WNW 05:28:35 53° SSW 05:38:38 10° SE
CZ-4B DEB 4.2 05:25:13 10° N 05:30:40 68° WNW 05:36:05 10° SSW
Okean O Rocket 2.2 05:27:03 10° N 05:31:14 41° WNW 05:35:14 11° SW
Cosmos 1455 3.5 05:29:33 16° WSW 05:31:33 23° WNW 05:34:45 10° NNW
Okean-O 2.9 05:28:26 10° NNE 05:32:53 70° ESE 05:37:18 10° S
Cosmos 2221 Rocket 3.6 05:29:55 10° S 05:34:21 86° ESE 05:38:49 10° N
Cosmos 2369 Rocket 3.4 05:31:09 10° NW 05:35:06 20° W 05:39:02 10° SW
CZ-4B R/B 3.3 05:30:41 10° N 05:35:53 56° WNW 05:41:02 10° SSW
Meteor PRIRODA 4.3 05:34:06 10° NNE 05:37:50 59° E 05:41:32 10° S
Cosmos 1908 Rocket 3.7 05:34:19 10° NNW 05:38:35 50° W 05:42:47 10° SSW
Abrixas rocket 3.5 05:37:11 10° WNW 05:40:21 39° N 05:43:31 10° E
ADEOS Rocket 3.7 05:36:43 10° NNE 05:44:26 90° E 05:52:14 10° SSW
Cosmos 2285 Rocket 4.0 05:38:22 10° NNW 05:44:44 65° WSW 05:51:03 10° S
CENTAUR R/B 2.6 05:39:26 10° SW 05:45:36 79° NW 05:52:36 10° NE
Sich 1 Rocket 4.3 05:43:02 10° NNW 05:46:59 33° W 05:50:55 10° SSW
Aureole 3 Rocket 4.0 05:41:35 10° SSW 05:49:01 78° W 05:54:15 10° N
CZ-4C R/B 4.3 05:46:41 10° WNW 05:50:23 17° NNW 05:54:23 10° NNE
Cosmos 389 Rocket 3.8 05:48:08 10° SW 05:50:59 23° WNW 05:53:51 10° NNW
Meteor 1-31 Rocket 3.5 05:49:27 10° NNE 05:53:13 55° E 05:56:57 10° S
Cosmos 1703 Rocket 3.9 05:53:02 10° SSW 05:57:21 48° WNW 06:01:44 10° N
PSLV R/B 3.6 05:56:52 10° W 06:00:13 52° S 06:03:31 10° ESE
Cosmos 1862 4.2 05:57:02 10° NNW 06:00:26 27° W 06:03:49 10° SSW
